SCP
0 0 0 0 0 0 0 0 0 0 0 0 -0 -0 -0 0 -0 -0 -0 -0 -0 0 0 0 0 0 0 -0 -0 0 0 0
0 0 0 0 0 0 -0 0 -0 -0 0 0 0 -0 0 0 -0 -0 -0 -0 -0 0 1 0 0 0 -0 0 -0 0 0 0
0 0 0 0 0 0 0 -0 -0 0 0 0 0 -0 -0 0 -0 -1 -0 -0 -0 0 0 0 0 -0 0 0 0 0 0 0
0 0 0 0 0 0 0 0 0 -0 -0 0 0 0 0 0 -0 -0 0 0 0 0 0 0 0 -0 0 0 0 0 0 0
0 0 0 0 0 0 0 0 0 0 0 0 0 -0 0 0 0 0 0 0 0 0 0 0 0 0 0 -0 0 0 0 0
0 0 0 0 0 0 0 0 0 0 0 -0 0 0 0 0 -0 0 0 0 0 0 0 0 0 0 0 0 0 -0 0 0
0 0 0 0 0 0 0 0 0 0 0 0 0 0 0 -0 -0 0 0 0 0 0 1 1 0 0 0 0 0 0 -0 0
0 0 0 0 0 0 0 0 0 0 0 0 0 0 0 0 -0 0 0 0 0 0 1 1 0 0 0 0 0 0 -0 -0
0 0 0 0 0 0 0 0 0 0 0 0 0 0 -0 -0 -0 -0 0 0 0 0 0 0 0 0 0 0 0 0 0 -0
0 0 0 0 0 0 0 0 0 0 0 0 0 -0 -0 0 -0 -0 0 0 0 0 0 0 0 0 0 0 0 0 0 -0
0 0 0 0 0 0 0 0 0 0 0 -0 -0 0 0 0 0 0 -0 0 0 0 0 0 0 0 0 0 0 0 -0 -0
0 0 0 0 0 0 0 0 0 0 0 0 1 0 0 0 0 0 0 0 0 0 0 1 0 0 0 0 -0 -0 -0 -0
0 0 0 0 0 0 0 0 1 0 1 0 0 -0 -0 0 0 0 0 0 0 0 0 0 0 0 -0 -0 -1 -1 0 0
0 0 0 0 0 0 1 1 1 1 1 2 1 0 0 0 0 0 1 1 1 0 0 1 1 1 0 -1 -1 0 1 1
0 0 0 -0 0 0 0 0 0 0 0 1 1 1 1 1 0 0 1 2 1 1 2 3 2 1 1 -1 1 1 1 1
0 0 -0 0 -0 0 0 0 0 0 1 1 0 0 2 2 1 0 1 1 1 1 2 3 4 3 1 3 5 4 3 2
0 0 1 0 0 0 0 0 0 0 1 2 3 3 2 1 3 3 1 1 1 2 2 3 4 3 3 5 6 6 5 4
1 0 0 0 0 0 0 0 -0 0 2 3 4 2 1 2 2 2 2 1 1 2 4 4 5 5 5 5 6 6 7 6
0 0 0 0 0 0 0 -0 -0 -0 -0 0 2 2 4 1 0 0 1 1 1 3 2 7 6 5 5 6 7 7 7 8
Wind_Speed_500mb
59 50 53 50 43 46 51 42 13 15 13 17 42 39 36 51 68 68 68 70 73 73 76 76 76 74 73 70 68 64 63 60
49 59 52 58 36 40 33 45 22 6 7 25 22 31 34 32 63 71 69 68 72 72 74 71 72 73 71 68 69 61 59 62
50 54 53 38 41 39 44 35 29 24 12 20 32 41 33 27 68 76 73 69 71 70 77 75 70 72 74 71 68 63 59 59
60 51 59 51 52 52 32 38 30 16 10 2 35 48 27 30 71 75 70 67 70 68 74 76 73 73 75 73 70 63 61 60
50 44 50 58 54 52 50 34 38 27 5 10 42 47 26 39 66 72 68 66 69 68 73 76 73 74 75 74 73 67 60 63
33 43 35 50 56 54 52 33 33 36 26 39 13 33 17 48 60 64 64 67 70 69 74 77 75 77 76 76 72 70 65 64
45 52 51 49 49 59 54 46 44 39 36 28 34 38 40 49 53 58 58 63 72 72 75 78 77 75 77 74 76 72 69 68
48 48 55 49 58 58 55 54 50 47 16 19 30 38 36 36 53 58 58 63 68 70 74 80 82 78 81 77 79 77 75 74
40 39 48 50 45 54 47 52 48 46 29 31 25 26 69 43 52 58 60 66 70 76 77 80 86 85 82 83 79 80 79 76
29 33 44 31 41 38 52 50 47 42 25 39 31 90 49 52 54 59 62 65 67 72 76 79 78 82 78 80 78 83 84 82
26 31 35 48 44 34 33 43 46 35 37 57 92 32 48 31 61 60 65 64 69 71 71 72 74 76 81 77 86 85 88 89
24 35 46 33 42 31 21 22 28 32 29 34 30 20 9 100 61 66 62 64 61 66 70 72 73 73 74 81 82 91 91 90
26 20 24 26 37 40 26 6 38 28 34 44 14 8 48 53 33 63 64 66 67 70 72 74 73 76 82 82 90 93 90 90
30 24 30 42 18 5 21 41 42 44 48 46 27 57 34 54 42 27 54 48 42 68 77 77 77 77 83 89 86 89 90 89
27 28 27 43 35 34 34 31 37 36 36 35 29 23 16 7 54 46 17 8 43 52 57 50 72 79 84 80 81 87 93 91
24 35 43 37 36 33 32 35 32 34 34 28 24 25 27 28 31 35 26 21 27 21 35 50 60 62 77 79 86 87 90 94
32 27 20 33 33 29 28 27 34 35 34 32 33 30 30 34 33 40 40 33 31 37 44 49 55 54 65 77 75 79 85 90
8 29 25 26 32 30 27 32 36 37 36 32 30 33 31 37 39 41 42 44 45 43 54 50 56 62 64 61 66 76 81 86
15 39 28 19 26 29 32 31 37 40 41 39 38 41 38 38 40 44 46 50 55 49 64 62 59 66 71 69 62 71 85 83
Wind_Direction_500mb
224 233 227 234 225 235 250 251 195 344 301 187 187 215 227 208 171 178 185 184 187 190 184 187 192 198 197 206 216 220 218 219
228 230 223 229 231 226 239 251 243 155 319 259 260 261 214 169 169 173 177 181 182 188 184 189 192 198 198 204 216 219 218 218
228 208 224 212 233 226 239 242 251 202 202 243 276 278 229 176 168 166 173 179 178 184 182 186 191 196 198 200 208 216 216 214
254 220 211 219 219 234 239 239 259 272 223 93 305 278 227 176 154 161 169 177 175 182 180 182 190 193 195 199 203 215 212 208
245 249 205 213 222 225 238 231 242 250 180 140 263 280 165 166 151 158 168 174 172 179 179 182 189 192 195 198 201 213 213 208
238 240 212 202 221 227 231 235 234 242 183 177 78 315 225 145 149 156 168 171 170 177 181 183 189 192 196 198 200 207 215 215
264 265 255 207 209 230 229 233 241 242 232 175 143 230 275 145 153 158 170 170 171 176 182 183 188 194 195 198 200 203 214 218
266 269 264 263 205 216 233 230 241 250 118 92 39 337 306 161 162 163 175 175 173 176 182 184 191 194 198 198 199 203 214 220
261 259 266 263 238 204 221 236 230 237 160 118 92 309 277 188 172 171 178 175 177 181 185 187 195 195 199 200 203 205 214 221
269 266 254 260 253 232 208 226 238 233 191 148 139 229 236 172 178 177 181 182 183 185 190 194 198 199 200 202 203 209 213 221
249 245 253 253 247 252 228 210 233 238 235 169 179 79 323 242 177 182 185 186 188 191 193 196 199 202 204 204 209 211 216 220
270 240 236 241 247 251 271 259 218 241 253 259 144 122 276 244 187 182 184 188 190 192 196 202 206 204 210 209 212 216 219 222
237 257 250 242 279 250 243 321 7 7 352 251 133 185 259 265 211 184 188 192 194 193 197 211 212 209 214 217 219 225 223 225
230 227 241 11 28 297 13 18 14 10 13 14 4 161 225 297 273 203 184 188 196 199 203 208 213 214 218 222 229 228 229 228
210 223 83 75 60 39 19 15 9 5 5 8 0 356 37 324 240 289 307 218 204 203 203 203 215 221 222 239 236 233 227 230
216 236 259 67 50 20 11 5 1 1 357 0 354 344 336 334 323 319 307 288 274 226 211 219 217 220 233 241 234 232 233 229
232 25 3 41 20 3 358 351 6 355 347 343 341 333 324 314 314 312 309 290 263 258 245 241 247 241 237 237 239 237 233 228
349 347 345 353 339 355 359 4 359 357 356 348 337 316 302 301 298 298 295 292 281 275 252 248 247 254 257 249 238 236 228 219
305 329 313 342 348 2 351 5 5 5 3 352 338 337 343 304 287 282 282 277 273 281 260 246 245 252 258 256 246 237 227 214
Wind_Speed_850mb
59 50 53 50 43 46 51 42 13 15 13 17 42 39 36 51 68 68 68 70 73 73 76 76 76 74 73 70 68 64 63 60
49 59 52 58 36 40 33 45 22 6 7 25 22 31 34 32 63 71 69 68 72 72 74 71 72 73 71 68 69 61 59 62
50 54 53 38 41 39 44 35 29 24 12 20 32 41 33 27 68 76 73 69 71 70 77 75 70 72 74 71 68 63 59 59
60 51 59 51 52 52 32 38 30 16 10 2 35 48 27 30 71 75 70 67 70 68 74 76 73 73 75 73 70 63 61 60
50 44 50 58 54 52 50 34 38 27 5 10 42 47 26 39 66 72 68 66 69 68 73 76 73 74 75 74 73 67 60 63
33 43 35 50 56 54 52 33 33 36 26 39 13 33 17 48 60 64 64 67 70 69 74 77 75 77 76 76 72 70 65 64
45 52 51 49 49 59 54 46 44 39 36 28 34 38 40 49 53 58 58 63 72 72 75 78 77 75 77 74 76 72 69 68
48 48 55 49 58 58 55 54 50 47 16 19 30 38 36 36 53 58 58 63 68 70 74 80 82 78 81 77 79 77 75 74
40 39 48 50 45 54 47 52 48 46 29 31 25 26 69 43 52 58 60 66 70 76 77 80 86 85 82 83 79 80 79 76
29 33 44 31 41 38 52 50 47 42 25 39 31 90 49 52 54 59 62 65 67 72 76 79 78 82 78 80 78 83 84 82
26 31 35 48 44 34 33 43 46 35 37 57 92 32 48 31 61 60 65 64 69 71 71 72 74 76 81 77 86 85 88 89
24 35 46 33 42 31 21 22 28 32 29 34 30 20 9 100 61 66 62 64 61 66 70 72 73 73 74 81 82 91 91 90
26 20 24 26 37 40 26 6 38 28 34 44 14 8 48 53 33 63 64 66 67 70 72 74 73 76 82 82 90 93 90 90
30 24 30 42 18 5 21 41 42 44 48 46 27 57 34 54 42 27 54 48 42 68 77 77 77 77 83 89 86 89 90 89
27 28 27 43 35 34 34 31 37 36 36 35 29 23 16 7 54 46 17 8 43 52 57 50 72 79 84 80 81 87 93 91
24 35 43 37 36 33 32 35 32 34 34 28 24 25 27 28 31 35 26 21 27 21 35 50 60 62 77 79 86 87 90 94
32 27 20 33 33 29 28 27 34 35 34 32 33 30 30 34 33 40 40 33 31 37 44 49 55 54 65 77 75 79 85 90
8 29 25 26 32 30 27 32 36 37 36 32 30 33 31 37 39 41 42 44 45 43 54 50 56 62 64 61 66 76 81 86
15 39 28 19 26 29 32 31 37 40 41 39 38 41 38 38 40 44 46 50 55 49 64 62 59 66 71 69 62 71 85 83
Wind_Direction_850mb
224 233 227 234 225 235 250 251 195 344 301 187 187 215 227 208 171 178 185 184 187 190 184 187 192 198 197 206 216 220 218 219
228 230 223 229 231 226 239 251 243 155 319 259 260 261 214 169 169 173 177 181 182 188 184 189 192 198 198 204 216 219 218 218
228 208 224 212 233 226 239 242 251 202 202 243 276 278 229 176 168 166 173 179 178 184 182 186 191 196 198 200 208 216 216 214
254 220 211 219 219 234 239 239 259 272 223 93 305 278 227 176 154 161 169 177 175 182 180 182 190 193 195 199 203 215 212 208
245 249 205 213 222 225 238 231 242 250 180 140 263 280 165 166 151 158 168 174 172 179 179 182 189 192 195 198 201 213 213 208
238 240 212 202 221 227 231 235 234 242 183 177 78 315 225 145 149 156 168 171 170 177 181 183 189 192 196 198 200 207 215 215
264 265 255 207 209 230 229 233 241 242 232 175 143 230 275 145 153 158 170 170 171 176 182 183 188 194 195 198 200 203 214 218
266 269 264 263 205 216 233 230 241 250 118 92 39 337 306 161 162 163 175 175 173 176 182 184 191 194 198 198 199 203 214 220
261 259 266 263 238 204 221 236 230 237 160 118 92 309 277 188 172 171 178 175 177 181 185 187 195 195 199 200 203 205 214 221
269 266 254 260 253 232 208 226 238 233 191 148 139 229 236 172 178 177 181 182 183 185 190 194 198 199 200 202 203 209 213 221
249 245 253 253 247 252 228 210 233 238 235 169 179 79 323 242 177 182 185 186 188 191 193 196 199 202 204 204 209 211 216 220
270 240 236 241 247 251 271 259 218 241 253 259 144 122 276 244 187 182 184 188 190 192 196 202 206 204 210 209 212 216 219 222
237 257 250 242 279 250 243 321 7 7 352 251 133 185 259 265 211 184 188 192 194 193 197 211 212 209 214 217 219 225 223 225
230 227 241 11 28 297 13 18 14 10 13 14 4 161 225 297 273 203 184 188 196 199 203 208 213 214 218 222 229 228 229 228
210 223 83 75 60 39 19 15 9 5 5 8 0 356 37 324 240 289 307 218 204 203 203 203 215 221 222 239 236 233 227 230
216 236 259 67 50 20 11 5 1 1 357 0 354 344 336 334 323 319 307 288 274 226 211 219 217 220 233 241 234 232 233 229
232 25 3 41 20 3 358 351 6 355 347 343 341 333 324 314 314 312 309 290 263 258 245 241 247 241 237 237 239 237 233 228
349 347 345 353 339 355 359 4 359 357 356 348 337 316 302 301 298 298 295 292 281 275 252 248 247 254 257 249 238 236 228 219
305 329 313 342 348 2 351 5 5 5 3 352 338 337 343 304 287 282 282 277 273 281 260 246 245 252 258 256 246 237 227 214